User: anonymous   Login
Location: Wildcat Hills Observatory
(41.6350°N, 103.6812°W)
Time: 22:34:23
(UTC-07:00)
Language:

Cosmos 2315 Rocket - Orbit

View from above orbital plane
View from above orbital plane
View from above satellite
View from above satellite

Ground track
Ground track

The orbit data is extracted from the following two-line orbital elements,

1 23604U 95032B   18348.83471502 +.00000072 +00000-0 +59636-4 0  9990
2 23604 082.9040 110.6453 0024885 157.3777 202.8482 13.74305253175736
Epoch (UTC): 14 December 2018 20:01:59
Eccentricity: 0.0024885
inclination: 82.9040°
perigee height: 966 km
apogee height: 1002 km
right ascension of ascending node: 110.6453°
argument of perigee: 157.3777°
revolutions per day: 13.74305253
mean anomaly at epoch: 202.8482°
orbit number at epoch: 17573

The dashed part of the orbit path shows where the satellite is in the earth's shadow,  

DLR